VLG2609 LEBB-LEMG

Flight info

Callsign VLG2609
Flight time 1h 31m
Altitude 33000
Route AMTOS L14 NEA DCT NONTU DCT ORBIS DCT DISKO DCT TLD DCT DOPEN DCT MONTO DCT CRISA DCT VULPE
Aircraft A320/M-SDE3FGHIRWY/LB1

Departure

Time 2026-05-04 14:16
Airport Bilbao Airport (LEBB)

Arrival

Time 2026-05-04 15:47
Airport Málaga-Costa del Sol Airport (LEMG)
Time Latitude Longitude Altitude Speed Heading
2026-05-04 13:43 43.30407 -2.90577 100 ft 0 kts 26°
2026-05-04 14:01 43.30406 -2.90577 127 ft 0 kts 26°
2026-05-04 14:07 43.30391 -2.90588 142 ft 4 kts 31°
2026-05-04 14:07 43.30369 -2.90609 118 ft 4 kts 45°
2026-05-04 14:07 43.30354 -2.90638 123 ft 4 kts 82°
2026-05-04 14:08 43.30356 -2.90658 123 ft 1 kts 117°
2026-05-04 14:08 43.30357 -2.90662 124 ft 3 kts 117°
2026-05-04 14:10 43.30356 -2.90659 127 ft 2 kts 117°
2026-05-04 14:10 43.30340 -2.90620 126 ft 6 kts 123°
2026-05-04 14:11 43.30301 -2.90578 125 ft 8 kts 145°
2026-05-04 14:11 43.30192 -2.90549 127 ft 5 kts 203°
2026-05-04 14:11 43.30152 -2.90573 127 ft 7 kts 195°
2026-05-04 14:12 43.30110 -2.90544 126 ft 7 kts 128°
2026-05-04 14:12 43.30083 -2.90479 125 ft 9 kts 117°
2026-05-04 14:12 43.30017 -2.90298 125 ft 12 kts 116°
2026-05-04 14:13 43.29975 -2.90184 124 ft 14 kts 117°
2026-05-04 14:13 43.29927 -2.90053 124 ft 16 kts 117°
2026-05-04 14:13 43.29873 -2.89905 126 ft 18 kts 116°
2026-05-04 14:13 43.29815 -2.89741 124 ft 20 kts 116°
2026-05-04 14:14 43.29744 -2.89593 126 ft 16 kts 167°
2026-05-04 14:14 43.29650 -2.89722 126 ft 12 kts 266°
2026-05-04 14:14 43.29671 -2.89841 127 ft 14 kts 288°
2026-05-04 14:15 43.29767 -2.90122 123 ft 23 kts 296°
2026-05-04 14:15 43.30323 -2.91641 126 ft 145 kts 296°
2026-05-04 14:16 43.31272 -2.94163 1392 ft 147 kts 298°
2026-05-04 14:16 43.31784 -2.95478 1714 ft 168 kts 298°
2026-05-04 14:17 43.33014 -2.98585 2377 ft 204 kts 304°
2026-05-04 14:17 43.34004 -3.00120 2656 ft 226 kts 315°
2026-05-04 14:17 43.36456 -3.03312 4054 ft 251 kts 316°
2026-05-04 14:18 43.37716 -3.04998 4957 ft 255 kts 315°
2026-05-04 14:18 43.40371 -3.08340 5919 ft 261 kts 330°
2026-05-04 14:19 43.43979 -3.08549 7041 ft 275 kts 20°
2026-05-04 14:19 43.45084 -3.07662 7582 ft 282 kts 37°
2026-05-04 14:19 43.46279 -3.05513 8362 ft 290 kts 67°
2026-05-04 14:19 43.46617 -3.02777 9167 ft 295 kts 96°
2026-05-04 14:20 43.45979 -3.00114 9920 ft 297 kts 125°
2026-05-04 14:20 43.44509 -2.98175 10645 ft 294 kts 154°
2026-05-04 14:20 43.42599 -2.97271 11166 ft 302 kts 169°
2026-05-04 14:21 43.38239 -2.95932 12028 ft 332 kts 170°
2026-05-04 14:21 43.35962 -2.95263 12784 ft 336 kts 170°
2026-05-04 14:21 43.33653 -2.94686 13540 ft 338 kts 177°
2026-05-04 14:21 43.31310 -2.94731 14230 ft 337 kts 189°
2026-05-04 14:22 43.29034 -2.95473 14855 ft 337 kts 201°
2026-05-04 14:22 43.26936 -2.96885 15470 ft 338 kts 214°
2026-05-04 14:22 43.24992 -2.98720 16085 ft 339 kts 215°
2026-05-04 14:22 43.23043 -3.00568 16704 ft 342 kts 215°
2026-05-04 14:23 43.19093 -3.04279 17945 ft 347 kts 214°
2026-05-04 14:23 43.17093 -3.06148 18522 ft 350 kts 215°
2026-05-04 14:23 43.15066 -3.08040 19008 ft 354 kts 215°
2026-05-04 14:24 43.13048 -3.09926 19556 ft 356 kts 215°
2026-05-04 14:24 43.10991 -3.11847 20092 ft 359 kts 215°
2026-05-04 14:24 43.08913 -3.13786 20627 ft 362 kts 215°
2026-05-04 14:24 43.06824 -3.15734 21132 ft 365 kts 215°
2026-05-04 14:25 43.04721 -3.17697 21625 ft 367 kts 215°
2026-05-04 14:25 43.00466 -3.21656 22601 ft 373 kts 215°
2026-05-04 14:25 42.98317 -3.23658 23092 ft 375 kts 215°
2026-05-04 14:26 42.96154 -3.25675 23542 ft 378 kts 216°
2026-05-04 14:26 42.93967 -3.27713 23930 ft 381 kts 216°
2026-05-04 14:26 42.91768 -3.29756 24334 ft 384 kts 216°
2026-05-04 14:26 42.89556 -3.31811 24742 ft 386 kts 216°
2026-05-04 14:27 42.87331 -3.33873 25147 ft 388 kts 216°
2026-05-04 14:27 42.85091 -3.35943 25543 ft 390 kts 216°
2026-05-04 14:27 42.82845 -3.38017 25953 ft 392 kts 216°
2026-05-04 14:27 42.80581 -3.40105 26342 ft 394 kts 216°
2026-05-04 14:28 42.78332 -3.42182 26735 ft 396 kts 216°
2026-05-04 14:28 42.76047 -3.44294 27135 ft 398 kts 216°
2026-05-04 14:28 42.73752 -3.46413 27538 ft 399 kts 216°
2026-05-04 14:28 42.71443 -3.48543 27932 ft 401 kts 216°
2026-05-04 14:29 42.66800 -3.52816 28700 ft 405 kts 216°
2026-05-04 14:29 42.62107 -3.57122 29453 ft 409 kts 216°
2026-05-04 14:30 42.59763 -3.59268 29822 ft 411 kts 216°
2026-05-04 14:30 42.57386 -3.61444 30173 ft 413 kts 216°
2026-05-04 14:30 42.52597 -3.65820 30779 ft 417 kts 216°
2026-05-04 14:31 42.50195 -3.68011 31207 ft 415 kts 216°
2026-05-04 14:31 42.45415 -3.72369 32111 ft 413 kts 216°
2026-05-04 14:32 42.40656 -3.76701 32911 ft 412 kts 216°
2026-05-04 14:32 42.35961 -3.80961 32998 ft 404 kts 216°
2026-05-04 14:33 42.31300 -3.85189 32993 ft 402 kts 216°
2026-05-04 14:33 42.26651 -3.89402 32989 ft 402 kts 216°
2026-05-04 14:34 42.22007 -3.93600 32993 ft 402 kts 216°
2026-05-04 14:34 42.17359 -3.97785 32989 ft 402 kts 216°
2026-05-04 14:35 42.12742 -4.01937 32974 ft 402 kts 216°
2026-05-04 14:35 42.08091 -4.06121 32976 ft 401 kts 217°
2026-05-04 14:36 42.03275 -4.09929 32985 ft 405 kts 205°
2026-05-04 14:36 41.97711 -4.11493 32987 ft 414 kts 189°
2026-05-04 14:37 41.91961 -4.12141 32985 ft 414 kts 189°
2026-05-04 14:37 41.86247 -4.12796 32966 ft 414 kts 190°
2026-05-04 14:38 41.80497 -4.13452 32976 ft 415 kts 189°
2026-05-04 14:38 41.74736 -4.14097 32981 ft 415 kts 189°
2026-05-04 14:39 41.68981 -4.14755 32956 ft 415 kts 190°
2026-05-04 14:39 41.63249 -4.15413 32968 ft 415 kts 190°
2026-05-04 14:40 41.54596 -4.16395 32975 ft 415 kts 190°
2026-05-04 14:40 41.48833 -4.17038 32982 ft 416 kts 190°
2026-05-04 14:41 41.43070 -4.17686 32969 ft 416 kts 191°
2026-05-04 14:42 41.31575 -4.18975 32989 ft 416 kts 191°
2026-05-04 14:42 41.25804 -4.19620 32970 ft 416 kts 191°
2026-05-04 14:43 41.20049 -4.20264 32979 ft 415 kts 191°
2026-05-04 14:43 41.14283 -4.20909 32984 ft 415 kts 191°
2026-05-04 14:44 41.08526 -4.21551 32988 ft 415 kts 191°
2026-05-04 14:44 41.02762 -4.22189 32969 ft 415 kts 191°
2026-05-04 14:45 40.97008 -4.22824 32982 ft 415 kts 191°
2026-05-04 14:45 40.91288 -4.23454 32984 ft 415 kts 191°
2026-05-04 14:46 40.85540 -4.24088 32986 ft 414 kts 191°
2026-05-04 14:46 40.79789 -4.24731 32965 ft 414 kts 191°
2026-05-04 14:47 40.74048 -4.25355 32974 ft 414 kts 191°
2026-05-04 14:47 40.68310 -4.25978 32981 ft 414 kts 191°
2026-05-04 14:48 40.62571 -4.26611 32977 ft 413 kts 192°
2026-05-04 14:48 40.56837 -4.27242 32973 ft 413 kts 191°
2026-05-04 14:49 40.51121 -4.27864 32967 ft 412 kts 191°
2026-05-04 14:49 40.45435 -4.28483 32966 ft 413 kts 191°
2026-05-04 14:50 40.39702 -4.29111 32973 ft 413 kts 191°
2026-05-04 14:50 40.33977 -4.29744 32944 ft 412 kts 191°
2026-05-04 14:51 40.28259 -4.30364 32946 ft 412 kts 191°
2026-05-04 14:51 40.22551 -4.30976 32952 ft 411 kts 191°
2026-05-04 14:52 40.16833 -4.31594 32936 ft 411 kts 191°
2026-05-04 14:52 40.11169 -4.32212 32949 ft 411 kts 192°
2026-05-04 14:53 40.05470 -4.32829 32954 ft 411 kts 191°
2026-05-04 14:53 39.99773 -4.33437 32956 ft 411 kts 191°
2026-05-04 14:54 39.94100 -4.34177 32928 ft 408 kts 195°
2026-05-04 14:54 39.88521 -4.35395 32955 ft 405 kts 197°
2026-05-04 14:55 39.82967 -4.36731 32968 ft 405 kts 197°
2026-05-04 14:55 39.77453 -4.37970 32970 ft 405 kts 196°
2026-05-04 14:56 39.71900 -4.39159 32947 ft 405 kts 196°
2026-05-04 14:56 39.66338 -4.40323 32965 ft 404 kts 196°
2026-05-04 14:57 39.60783 -4.41495 32974 ft 404 kts 196°
2026-05-04 14:57 39.55239 -4.42683 32977 ft 403 kts 196°
2026-05-04 14:58 39.49709 -4.43860 32975 ft 404 kts 196°
2026-05-04 14:58 39.44166 -4.45040 32972 ft 403 kts 196°
2026-05-04 14:59 39.38642 -4.46215 32993 ft 402 kts 196°
2026-05-04 15:00 39.30376 -4.47967 32999 ft 401 kts 196°
2026-05-04 15:00 39.24902 -4.49118 32978 ft 401 kts 196°
2026-05-04 15:01 39.16647 -4.50857 33004 ft 400 kts 196°
2026-05-04 15:01 39.11155 -4.52015 33007 ft 399 kts 196°
2026-05-04 15:02 39.05663 -4.53169 33006 ft 399 kts 196°
2026-05-04 15:02 39.00202 -4.54305 32961 ft 399 kts 197°
2026-05-04 15:03 38.94723 -4.55447 32974 ft 399 kts 197°
2026-05-04 15:03 38.89237 -4.56593 32984 ft 399 kts 197°
2026-05-04 15:04 38.83740 -4.57702 32987 ft 400 kts 197°
2026-05-04 15:04 38.78239 -4.58871 32967 ft 400 kts 197°
2026-05-04 15:05 38.72737 -4.60037 32975 ft 401 kts 197°
2026-05-04 15:05 38.67255 -4.61181 32988 ft 402 kts 197°
2026-05-04 15:06 38.61738 -4.62321 32993 ft 401 kts 197°
2026-05-04 15:07 38.53458 -4.64040 32963 ft 402 kts 197°
2026-05-04 15:07 38.47926 -4.65186 32979 ft 402 kts 197°
2026-05-04 15:08 38.42394 -4.66321 32990 ft 402 kts 197°
2026-05-04 15:08 38.36909 -4.67445 32990 ft 402 kts 197°
2026-05-04 15:09 38.31384 -4.68574 32997 ft 402 kts 197°
2026-05-04 15:09 38.25850 -4.69712 33001 ft 402 kts 197°
2026-05-04 15:10 38.17549 -4.71417 33005 ft 403 kts 197°
2026-05-04 15:11 38.09282 -4.73113 32919 ft 405 kts 197°
2026-05-04 15:11 38.06490 -4.73687 32158 ft 408 kts 197°
2026-05-04 15:11 38.03678 -4.74262 31469 ft 410 kts 197°
2026-05-04 15:11 38.00874 -4.74830 30978 ft 406 kts 196°
2026-05-04 15:12 37.99028 -4.75201 30677 ft 402 kts 196°
2026-05-04 15:12 37.96281 -4.75751 30239 ft 397 kts 196°
2026-05-04 15:12 37.93563 -4.76295 29753 ft 393 kts 196°
2026-05-04 15:12 37.90882 -4.76835 29329 ft 387 kts 197°
2026-05-04 15:13 37.88242 -4.77368 28909 ft 381 kts 197°
2026-05-04 15:13 37.85641 -4.77894 28463 ft 376 kts 197°
2026-05-04 15:13 37.82253 -4.78587 27982 ft 368 kts 197°
2026-05-04 15:13 37.80547 -4.78936 27705 ft 366 kts 197°
2026-05-04 15:14 37.78075 -4.79414 27301 ft 365 kts 193°
2026-05-04 15:14 37.75481 -4.79414 26890 ft 374 kts 182°
2026-05-04 15:14 37.72937 -4.78745 26471 ft 381 kts 173°
2026-05-04 15:14 37.70398 -4.77844 26041 ft 379 kts 173°
2026-05-04 15:15 37.67868 -4.76947 25616 ft 377 kts 173°
2026-05-04 15:15 37.65346 -4.76062 25178 ft 375 kts 173°
2026-05-04 15:15 37.62832 -4.75185 24733 ft 374 kts 173°
2026-05-04 15:16 37.57820 -4.73446 23825 ft 373 kts 173°
2026-05-04 15:16 37.55318 -4.72577 23304 ft 373 kts 172°
2026-05-04 15:16 37.50344 -4.70843 22337 ft 369 kts 172°
2026-05-04 15:17 37.47875 -4.69981 21862 ft 366 kts 172°
2026-05-04 15:17 37.43065 -4.68300 21352 ft 350 kts 172°
2026-05-04 15:17 37.40725 -4.67485 20953 ft 348 kts 172°
2026-05-04 15:18 37.38413 -4.66590 20532 ft 351 kts 165°
2026-05-04 15:18 37.36235 -4.65171 20123 ft 355 kts 157°
2026-05-04 15:18 37.34128 -4.63620 19726 ft 353 kts 157°
2026-05-04 15:19 37.29902 -4.60513 18952 ft 349 kts 156°
2026-05-04 15:19 37.27772 -4.59112 18576 ft 341 kts 166°
2026-05-04 15:19 37.23306 -4.58147 17978 ft 318 kts 187°
2026-05-04 15:20 37.21098 -4.58143 17711 ft 316 kts 187°
2026-05-04 15:20 37.18899 -4.58131 17449 ft 316 kts 186°
2026-05-04 15:20 37.16707 -4.58113 17184 ft 314 kts 186°
2026-05-04 15:20 37.14525 -4.58093 16905 ft 313 kts 186°
2026-05-04 15:21 37.12381 -4.58072 16668 ft 312 kts 186°
2026-05-04 15:21 37.10218 -4.58050 16412 ft 310 kts 186°
2026-05-04 15:21 37.05917 -4.58015 15890 ft 308 kts 186°
2026-05-04 15:22 37.03776 -4.57997 15568 ft 307 kts 186°
2026-05-04 15:22 37.01645 -4.57980 15260 ft 305 kts 186°
2026-05-04 15:22 36.97409 -4.57947 14646 ft 303 kts 186°
2026-05-04 15:23 36.95294 -4.57813 14341 ft 307 kts 176°
2026-05-04 15:23 36.93231 -4.57017 14018 ft 316 kts 160°
2026-05-04 15:23 36.91376 -4.55486 13691 ft 324 kts 143°
2026-05-04 15:23 36.89766 -4.53502 13332 ft 324 kts 140°
2026-05-04 15:24 36.86612 -4.49566 12744 ft 321 kts 140°
2026-05-04 15:24 36.83461 -4.45668 12234 ft 313 kts 140°
2026-05-04 15:25 36.81938 -4.43782 12108 ft 304 kts 141°
2026-05-04 15:25 36.80448 -4.41942 11934 ft 298 kts 141°
2026-05-04 15:25 36.78978 -4.40134 11680 ft 295 kts 141°
2026-05-04 15:26 36.76070 -4.36577 11164 ft 291 kts 141°
2026-05-04 15:26 36.74631 -4.34819 10954 ft 287 kts 141°
2026-05-04 15:26 36.71427 -4.32210 10490 ft 271 kts 160°
2026-05-04 15:27 36.69732 -4.31175 10206 ft 271 kts 160°
2026-05-04 15:27 36.66388 -4.29120 9681 ft 268 kts 160°
2026-05-04 15:28 36.63073 -4.27080 9186 ft 263 kts 160°
2026-05-04 15:28 36.61524 -4.25846 8972 ft 268 kts 143°
2026-05-04 15:28 36.59047 -4.22315 8647 ft 271 kts 134°
2026-05-04 15:29 36.57842 -4.20532 8479 ft 266 kts 134°
2026-05-04 15:30 36.53052 -4.14161 7877 ft 239 kts 137°
2026-05-04 15:30 36.49757 -4.09712 7444 ft 232 kts 135°
2026-05-04 15:31 36.47601 -4.06721 7168 ft 235 kts 135°
2026-05-04 15:31 36.46506 -4.05206 7022 ft 236 kts 135°
2026-05-04 15:32 36.43272 -4.00733 6585 ft 233 kts 135°
2026-05-04 15:32 36.41103 -3.97851 6270 ft 223 kts 149°
2026-05-04 15:33 36.38303 -3.97200 5981 ft 202 kts 204°
2026-05-04 15:34 36.35105 -4.00212 5580 ft 193 kts 228°
2026-05-04 15:34 36.34353 -4.01523 5431 ft 184 kts 255°
2026-05-04 15:34 36.34775 -4.04439 5193 ft 180 kts 306°
2026-05-04 15:35 36.36456 -4.06755 4974 ft 175 kts 308°
2026-05-04 15:35 36.37248 -4.07842 4842 ft 164 kts 309°
2026-05-04 15:35 36.37987 -4.08861 4734 ft 153 kts 308°
2026-05-04 15:36 36.39344 -4.10739 4553 ft 143 kts 308°
2026-05-04 15:36 36.39991 -4.11635 4465 ft 141 kts 309°
2026-05-04 15:36 36.40649 -4.12545 4380 ft 142 kts 309°
2026-05-04 15:37 36.41301 -4.13456 4303 ft 140 kts 308°
2026-05-04 15:37 36.41947 -4.14362 4212 ft 141 kts 309°
2026-05-04 15:37 36.42600 -4.15271 4133 ft 140 kts 308°
2026-05-04 15:37 36.43248 -4.16171 4049 ft 140 kts 310°
2026-05-04 15:38 36.43895 -4.17068 3958 ft 139 kts 310°
2026-05-04 15:38 36.44540 -4.17962 3878 ft 139 kts 310°
2026-05-04 15:38 36.45188 -4.18860 3787 ft 140 kts 310°
2026-05-04 15:38 36.45841 -4.19766 3707 ft 140 kts 310°
2026-05-04 15:39 36.46479 -4.20650 3618 ft 138 kts 309°
2026-05-04 15:39 36.47123 -4.21543 3531 ft 139 kts 310°
2026-05-04 15:39 36.48441 -4.23372 3359 ft 143 kts 310°
2026-05-04 15:40 36.49096 -4.24280 3275 ft 140 kts 309°
2026-05-04 15:40 36.49743 -4.25177 3190 ft 138 kts 309°
2026-05-04 15:40 36.50390 -4.26076 3099 ft 141 kts 309°
2026-05-04 15:40 36.51047 -4.26989 3018 ft 141 kts 308°
2026-05-04 15:41 36.51690 -4.27881 2942 ft 137 kts 308°
2026-05-04 15:41 36.52325 -4.28764 2850 ft 137 kts 308°
2026-05-04 15:41 36.52969 -4.29660 2764 ft 138 kts 307°
2026-05-04 15:41 36.53605 -4.30543 2695 ft 138 kts 308°
2026-05-04 15:42 36.54239 -4.31425 2599 ft 135 kts 307°
2026-05-04 15:42 36.54865 -4.32296 2509 ft 135 kts 308°
2026-05-04 15:42 36.55488 -4.33163 2435 ft 135 kts 308°
2026-05-04 15:42 36.56119 -4.34041 2340 ft 136 kts 308°
2026-05-04 15:43 36.56745 -4.34913 2261 ft 135 kts 308°
2026-05-04 15:43 36.57367 -4.35778 2189 ft 133 kts 306°
2026-05-04 15:43 36.57986 -4.36641 2104 ft 134 kts 306°
2026-05-04 15:43 36.58611 -4.37513 2024 ft 136 kts 306°
2026-05-04 15:44 36.59234 -4.38380 1938 ft 134 kts 304°
2026-05-04 15:44 36.59847 -4.39235 1885 ft 132 kts 303°
2026-05-04 15:44 36.60459 -4.40088 1780 ft 132 kts 303°
2026-05-04 15:44 36.61073 -4.40946 1629 ft 133 kts 303°
2026-05-04 15:45 36.61689 -4.41804 1458 ft 133 kts 304°
2026-05-04 15:45 36.62301 -4.42658 1296 ft 131 kts 302°
2026-05-04 15:45 36.62908 -4.43504 1126 ft 131 kts 303°
2026-05-04 15:45 36.63518 -4.44352 947 ft 131 kts 303°
2026-05-04 15:46 36.64118 -4.45177 787 ft 130 kts 300°
2026-05-04 15:46 36.64723 -4.46034 625 ft 134 kts 303°
2026-05-04 15:46 36.65354 -4.46910 456 ft 138 kts 302°
2026-05-04 15:46 36.65994 -4.47814 264 ft 140 kts 305°
2026-05-04 15:47 36.66654 -4.48733 60 ft 142 kts 304°
2026-05-04 15:47 36.67224 -4.49593 47 ft 108 kts 313°
2026-05-04 15:47 36.67628 -4.50121 54 ft 59 kts 311°
2026-05-04 15:47 36.67806 -4.50342 51 ft 24 kts 314°
2026-05-04 15:48 36.67946 -4.50455 53 ft 20 kts 335°
2026-05-04 15:48 36.68046 -4.50498 46 ft 10 kts 352°
2026-05-04 15:48 36.68061 -4.50415 44 ft 2 kts 128°
2026-05-04 15:49 36.68045 -4.50390 44 ft 6 kts 129°
2026-05-04 15:49 36.68013 -4.50343 44 ft 6 kts 133°
2026-05-04 15:49 36.68008 -4.50336 44 ft 1 kts 134°
2026-05-04 15:49 36.67989 -4.50311 44 ft 6 kts 134°
2026-05-04 15:50 36.67955 -4.50266 44 ft 9 kts 132°
2026-05-04 15:50 36.67910 -4.50201 45 ft 11 kts 131°
2026-05-04 15:50 36.67849 -4.50114 44 ft 15 kts 132°
2026-05-04 15:50 36.67773 -4.50010 44 ft 17 kts 132°
2026-05-04 15:51 36.67727 -4.49899 43 ft 12 kts 73°
2026-05-04 15:51 36.67804 -4.49843 41 ft 14 kts 32°
2026-05-04 15:51 36.67869 -4.49767 42 ft 10 kts 68°
2026-05-04 15:51 36.67830 -4.49698 42 ft 11 kts 132°
2026-05-04 15:52 36.67798 -4.49653 42 ft 2 kts 131°
2026-05-04 15:52 36.67794 -4.49647 42 ft 0 kts 131°
2026-05-04 15:54 36.67794 -4.49648 42 ft 0 kts 131°